Location: B?jaj?g
(11.7167°N, 92.6667°E)
Time: 12:49:09
(UTC+00:00)

H-2A R/B - Pass Details

Date: 18 September 2020
Orbit: 734 x 836 km, 98.2° (Epoch: 23 October)

Event Time Altitude Azimuth Distance (km) Brightness Sun altitude
Exits shadow 14:06:57 22° 232° (SW) 1,587 3.9 -34.7°
Maximum altitude 14:08:28 25° 260° (W) 1,447 3.9 -35.0°
Drops below altitude 10° 14:12:29 10° 315° (NW) 2,239 5.0 -36.0°
Sets 14:15:08 0° 328° (NNW) 3,171 5.7 -36.6°
